| time (UTC) | temp F | wind direction | speed MPH | gust MPH | rain 1hr in | rain 24hr in | rain mn in | humidity % | barometer mb |
| 20260904062704 | 62 | 315 | 10.0 | 14.0 | 0.00 | 0.00 | 0.00 | 58 | 1013.0 |
| 20260904062204 | 62 | 312 | 9.0 | 13.0 | 0.00 | 0.00 | 0.00 | 59 | 1013.0 |
| 20260904061704 | 62 | 325 | 9.0 | 14.0 | 0.00 | 0.00 | 0.00 | 59 | 1013.0 |
| 20260904061205 | 62 | 318 | 9.0 | 14.0 | 0.00 | 0.00 | 0.00 | 60 | 1013.0 |
| 20260904060204 | 62 | 309 | 10.0 | 16.0 | 0.00 | 0.00 | 0.00 | 60 | 1013.0 |
| 20260904055704 | 63 | 325 | 9.0 | 16.0 | 0.00 | 0.00 | 0.00 | 59 | 1013.0 |
| 20260904055206 | 63 | 325 | 8.0 | 10.0 | 0.00 | 0.00 | 0.00 | 59 | 1013.0 |
| 20260904054704 | 64 | 313 | 6.0 | 10.0 | 0.00 | 0.00 | 0.00 | 58 | 1013.1 |
| 20260904054204 | 64 | 317 | 5.0 | 11.0 | 0.00 | 0.00 | 0.00 | 57 | 1013.1 |
| 20260904053704 | 64 | 315 | 6.0 | 11.0 | 0.00 | 0.00 | 0.00 | 56 | 1013.1 |
| 20260904053206 | 65 | 331 | 7.0 | 12.0 | 0.00 | 0.00 | 0.00 | 56 | 1013.1 |
| 20260904052704 | 65 | 334 | 8.0 | 12.0 | 0.00 | 0.00 | 0.00 | 57 | 1013.1 |
| 20260904052207 | 65 | 341 | 8.0 | 12.0 | 0.00 | 0.00 | 0.00 | 57 | 1013.1 |
| 20260904051704 | 65 | 343 | 6.0 | 9.0 | 0.00 | 0.00 | 0.00 | 56 | 1013.3 |
| 20260904050204 | 66 | 7 | 4.0 | 10.0 | 0.00 | 0.00 | 0.00 | 54 | 1013.4 |
| 20260904045704 | 66 | 9 | 4.0 | 10.0 | 0.00 | 0.00 | 0.00 | 55 | 1013.4 |
| 20260904045205 | 66 | 3 | 4.0 | 5.0 | 0.00 | 0.00 | 0.00 | 55 | 1013.5 |
| 20260904044704 | 66 | 17 | 3.0 | 5.0 | 0.00 | 0.00 | 0.00 | 54 | 1013.5 |
| 20260904044204 | 66 | 17 | 2.0 | 7.0 | 0.00 | 0.00 | 0.00 | 53 | 1013.5 |
| 20260904043704 | 67 | 17 | 2.0 | 7.0 | 0.00 | 0.00 | 0.00 | 53 | 1013.4 |
| 20260904043205 | 67 | 17 | 4.0 | 7.0 | 0.00 | 0.00 | 0.00 | 52 | 1013.5 |
| 20260904042704 | 67 | 17 | 4.0 | 7.0 | 0.00 | 0.00 | 0.00 | 51 | 1013.4 |
| 20260904042204 | 67 | 19 | 3.0 | 5.0 | 0.00 | 0.00 | 0.00 | 49 | 1013.5 |
| 20260904041704 | 67 | 22 | 3.0 | 5.0 | 0.00 | 0.00 | 0.00 | 49 | 1013.4 |
| 20260904041205 | 67 | 22 | 3.0 | 4.0 | 0.00 | 0.00 | 0.00 | 49 | 1013.4 |
| 20260904040704 | 68 | 22 | 2.0 | 4.0 | 0.00 | 0.00 | 0.00 | 52 | 1013.4 |
| 20260904040204 | 68 | 22 | 2.0 | 5.0 | 0.00 | 0.00 | 0.00 | 50 | 1013.3 |
| 20260904035704 | 69 | 22 | 2.0 | 5.0 | 0.00 | 0.00 | 0.00 | 48 | 1013.3 |
| 20260904034704 | 69 | 22 | 2.0 | 6.0 | 0.00 | 0.00 | 0.00 | 44 | 1013.1 |
| 20260904034204 | 69 | 20 | 4.0 | 9.0 | 0.00 | 0.00 | 0.00 | 42 | 1013.0 |
| 20260904033704 | 69 | 20 | 4.0 | 15.0 | 0.00 | 0.00 | 0.00 | 42 | 1013.0 |
| 20260904033208 | 69 | 23 | 5.0 | 16.0 | 0.00 | 0.00 | 0.00 | 43 | 1013.0 |
| 20260904032704 | 70 | 28 | 9.0 | 17.0 | 0.00 | 0.00 | 0.00 | 44 | 1013.0 |
| 20260904032204 | 70 | 325 | 12.0 | 19.0 | 0.00 | 0.00 | 0.00 | 43 | 1012.8 |
| 20260904031705 | 70 | 320 | 12.0 | 20.0 | 0.00 | 0.00 | 0.00 | 43 | 1012.8 |
| 20260904030704 | 70 | 322 | 11.0 | 19.0 | 0.00 | 0.00 | 0.00 | 42 | 1012.6 |
| 20260904030204 | 71 | 299 | 12.0 | 19.0 | 0.00 | 0.00 | 0.00 | 42 | 1012.6 |
| 20260904025704 | 71 | 311 | 12.0 | 20.0 | 0.00 | 0.00 | 0.00 | 40 | 1012.6 |
| 20260904025206 | 71 | 315 | 12.0 | 20.0 | 0.00 | 0.00 | 0.00 | 39 | 1012.6 |
| 20260904024704 | 71 | 307 | 12.0 | 18.0 | 0.00 | 0.00 | 0.00 | 37 | 1012.5 |
| 20260904024204 | 71 | 312 | 11.0 | 17.0 | 0.00 | 0.00 | 0.00 | 36 | 1012.5 |
| 20260904023205 | 72 | 297 | 11.0 | 17.0 | 0.00 | 0.00 | 0.00 | 35 | 1012.5 |
| 20260904022704 | 72 | 336 | 11.0 | 16.0 | 0.00 | 0.00 | 0.00 | 34 | 1012.5 |
| 20260904021704 | 73 | 358 | 11.0 | 20.0 | 0.00 | 0.00 | 0.00 | 36 | 1012.5 |
| 20260904021206 | 73 | 358 | 11.0 | 19.0 | 0.00 | 0.00 | 0.00 | 36 | 1012.5 |
| 20260904020704 | 73 | 358 | 11.0 | 19.0 | 0.00 | 0.00 | 0.00 | 33 | 1012.5 |
| 20260904020204 | 74 | 358 | 10.0 | 20.0 | 0.00 | 0.00 | 0.00 | 31 | 1012.6 |
| 20260904015704 | 74 | 358 | 10.0 | 20.0 | 0.00 | 0.00 | 0.00 | 34 | 1012.5 |
| 20260904015206 | 74 | 358 | 11.0 | 20.0 | 0.00 | 0.00 | 0.00 | 37 | 1012.6 |
| 20260904014206 | 74 | 358 | 12.0 | 20.0 | 0.00 | 0.00 | 0.00 | 40 | 1012.5 |
| 20260904013704 | 74 | 358 | 12.0 | 19.0 | 0.00 | 0.00 | 0.00 | 40 | 1012.4 |
| 20260904013206 | 75 | 358 | 10.0 | 19.0 | 0.00 | 0.00 | 0.00 | 40 | 1012.4 |
| 20260904012705 | 75 | 358 | 10.0 | 19.0 | 0.00 | 0.00 | 0.00 | 38 | 1012.4 |
| 20260904012205 | 76 | 286 | 11.0 | 19.0 | 0.00 | 0.00 | 0.00 | 35 | 1012.4 |
| 20260904011704 | 76 | 290 | 12.0 | 19.0 | 0.00 | 0.00 | 0.00 | 33 | 1012.4 |
| 20260904011205 | 76 | 303 | 12.0 | 19.0 | 0.00 | 0.00 | 0.00 | 33 | 1012.4 |
| 20260904010704 | 76 | 295 | 12.0 | 23.0 | 0.00 | 0.00 | 0.00 | 33 | 1012.3 |
| 20260904010204 | 76 | 329 | 13.0 | 23.0 | 0.00 | 0.00 | 0.00 | 33 | 1012.3 |
| 20260904005704 | 76 | 290 | 15.0 | 23.0 | 0.00 | 0.00 | 0.00 | 34 | 1012.3 |
| 20260904005206 | 76 | 358 | 16.0 | 23.0 | 0.00 | 0.00 | 0.00 | 36 | 1012.3 |
| 20260904004704 | 76 | 358 | 15.0 | 21.0 | 0.00 | 0.00 | 0.00 | 36 | 1012.3 |
| 20260904004204 | 77 | 298 | 14.0 | 21.0 | 0.00 | 0.00 | 0.00 | 38 | 1012.3 |
| 20260904003205 | 77 | 302 | 14.0 | 22.0 | 0.00 | 0.00 | 0.00 | 40 | 1012.4 |
| 20260904002704 | 77 | 307 | 15.0 | 22.0 | 0.00 | 0.00 | 0.00 | 40 | 1012.3 |
| 20260904002204 | 77 | 287 | 15.0 | 23.0 | 0.00 | 0.00 | 0.00 | 39 | 1012.3 |
| 20260904001704 | 77 | 288 | 16.0 | 23.0 | 0.00 | 0.00 | 0.00 | 39 | 1012.3 |
| 20260904000705 | 78 | 300 | 16.0 | 23.0 | 0.00 | 0.00 | 0.00 | 37 | 1012.4 |
| 20260904000204 | 78 | 304 | 16.0 | 22.0 | 0.00 | 0.00 | 0.00 | 37 | 1012.3 |
| 20260903235704 | 79 | 300 | 14.0 | 22.0 | 0.00 | 0.00 | 0.00 | 36 | 1012.4 |
| 20260903234706 | 79 | 302 | 14.0 | 22.0 | 0.00 | 0.00 | 0.00 | 36 | 1012.3 |
| 20260903234204 | 80 | 303 | 14.0 | 21.0 | 0.00 | 0.00 | 0.00 | 35 | 1012.4 |
| 20260903233704 | 79 | 290 | 15.0 | 21.0 | 0.00 | 0.00 | 0.00 | 35 | 1012.4 |
| 20260903233204 | 80 | 304 | 14.0 | 21.0 | 0.00 | 0.00 | 0.00 | 35 | 1012.4 |
| 20260903232705 | 80 | 320 | 14.0 | 21.0 | 0.00 | 0.00 | 0.00 | 34 | 1012.3 |
| 20260903232204 | 80 | 309 | 16.0 | 20.0 | 0.00 | 0.00 | 0.00 | 35 | 1012.4 |
| 20260903231204 | 80 | 304 | 15.0 | 21.0 | 0.00 | 0.00 | 0.00 | 32 | 1012.4 |
| 20260903230204 | 81 | 326 | 13.0 | 20.0 | 0.00 | 0.00 | 0.00 | 31 | 1012.5 |
| 20260903225704 | 81 | 325 | 14.0 | 21.0 | 0.00 | 0.00 | 0.00 | 30 | 1012.5 |
| 20260903225204 | 80 | 311 | 15.0 | 21.0 | 0.00 | 0.00 | 0.00 | 30 | 1012.6 |
| 20260903224706 | 81 | 273 | 14.0 | 21.0 | 0.00 | 0.00 | 0.00 | 28 | 1012.6 |
| 20260903224204 | 81 | 297 | 14.0 | 22.0 | 0.00 | 0.00 | 0.00 | 28 | 1012.6 |
| 20260903223704 | 81 | 311 | 15.0 | 22.0 | 0.00 | 0.00 | 0.00 | 28 | 1012.9 |
| 20260903223205 | 81 | 300 | 15.0 | 24.0 | 0.00 | 0.00 | 0.00 | 27 | 1012.8 |
| 20260903222205 | 81 | 277 | 16.0 | 24.0 | 0.00 | 0.00 | 0.00 | 28 | 1012.9 |
| 20260903221704 | 81 | 299 | 15.0 | 23.0 | 0.00 | 0.00 | 0.00 | 27 | 1012.9 |
| 20260903221205 | 81 | 311 | 14.0 | 23.0 | 0.00 | 0.00 | 0.00 | 27 | 1012.9 |
| 20260903220708 | 81 | 309 | 15.0 | 23.0 | 0.00 | 0.00 | 0.00 | 27 | 1013.0 |
| 20260903220204 | 82 | 312 | 15.0 | 21.0 | 0.00 | 0.00 | 0.00 | 27 | 1013.0 |
| 20260903215704 | 82 | 308 | 14.0 | 25.0 | 0.00 | 0.00 | 0.00 | 26 | 1013.0 |
| 20260903215204 | 82 | 292 | 14.0 | 25.0 | 0.00 | 0.00 | 0.00 | 26 | 1013.0 |
| 20260903214705 | 82 | 288 | 14.0 | 25.0 | 0.00 | 0.00 | 0.00 | 26 | 1013.1 |
| 20260903213704 | 82 | 320 | 13.0 | 19.0 | 0.00 | 0.00 | 0.00 | 26 | 1013.1 |
| 20260903213205 | 82 | 317 | 13.0 | 19.0 | 0.00 | 0.00 | 0.00 | 26 | 1013.2 |
| 20260903212705 | 82 | 284 | 13.0 | 19.0 | 0.00 | 0.00 | 0.00 | 26 | 1013.1 |
| 20260903212204 | 82 | 321 | 13.0 | 19.0 | 0.00 | 0.00 | 0.00 | 26 | 1013.2 |
| 20260903211704 | 81 | 298 | 13.0 | 18.0 | 0.00 | 0.00 | 0.00 | 26 | 1013.3 |
| 20260903211204 | 82 | 281 | 13.0 | 18.0 | 0.00 | 0.00 | 0.00 | 26 | 1013.3 |
| 20260903210704 | 81 | 321 | 13.0 | 19.0 | 0.00 | 0.00 | 0.00 | 26 | 1013.3 |
| 20260903205704 | 81 | 305 | 13.0 | 19.0 | 0.00 | 0.00 | 0.00 | 26 | 1013.3 |
| 20260903205204 | 81 | 302 | 12.0 | 18.0 | 0.00 | 0.00 | 0.00 | 26 | 1013.3 |
| 20260903204704 | 81 | 287 | 12.0 | 18.0 | 0.00 | 0.00 | 0.00 | 27 | 1013.3 |
| 20260903204204 | 81 | 291 | 12.0 | 18.0 | 0.00 | 0.00 | 0.00 | 26 | 1013.4 |
| 20260903203205 | 81 | 327 | 10.0 | 16.0 | 0.00 | 0.00 | 0.00 | 26 | 1013.4 |
| 20260903202704 | 81 | 286 | 10.0 | 15.0 | 0.00 | 0.00 | 0.00 | 27 | 1013.5 |
| 20260903201706 | 81 | 313 | 8.0 | 16.0 | 0.00 | 0.00 | 0.00 | 26 | 1013.5 |
| 20260903201205 | 80 | 299 | 10.0 | 16.0 | 0.00 | 0.00 | 0.00 | 25 | 1013.8 |
| 20260903200704 | 80 | 294 | 9.0 | 14.0 | 0.00 | 0.00 | 0.00 | 25 | 1013.8 |
| 20260903200204 | 81 | 260 | 8.0 | 14.0 | 0.00 | 0.00 | 0.00 | 27 | 1013.9 |
| 20260903195204 | 80 | 294 | 6.0 | 14.0 | 0.00 | 0.00 | 0.00 | 27 | 1014.1 |
| 20260903194204 | 79 | 269 | 8.0 | 13.0 | 0.00 | 0.00 | 0.00 | 28 | 1014.3 |
| 20260903193704 | 80 | 330 | 7.0 | 16.0 | 0.00 | 0.00 | 0.00 | 27 | 1014.3 |
| 20260903193204 | 80 | 265 | 8.0 | 16.0 | 0.00 | 0.00 | 0.00 | 27 | 1014.4 |
| 20260903192704 | 79 | 294 | 9.0 | 16.0 | 0.00 | 0.00 | 0.00 | 28 | 1014.4 |
| 20260903192204 | 79 | 262 | 8.0 | 16.0 | 0.00 | 0.00 | 0.00 | 27 | 1014.5 |
| 20260903191705 | 79 | 300 | 7.0 | 10.0 | 0.00 | 0.00 | 0.00 | 27 | 1014.4 |
| 20260903191204 | 80 | 304 | 5.0 | 10.0 | 0.00 | 0.00 | 0.00 | 26 | 1014.6 |
| 20260903190704 | 82 | 300 | 3.0 | 7.0 | 0.00 | 0.00 | 0.00 | 25 | 1014.6 |
| 20260903190204 | 82 | 105 | 3.0 | 7.0 | 0.00 | 0.00 | 0.00 | 21 | 1014.7 |
| 20260903185704 | 81 | 78 | 3.0 | 7.0 | 0.00 | 0.00 | 0.00 | 21 | 1014.7 |
| 20260903185204 | 80 | 61 | 2.0 | 4.0 | 0.00 | 0.00 | 0.00 | 22 | 1014.9 |
| 20260903184704 | 79 | 253 | 2.0 | 12.0 | 0.00 | 0.00 | 0.00 | 29 | 1015.0 |
| 20260903184204 | 78 | 253 | 3.0 | 12.0 | 0.00 | 0.00 | 0.00 | 29 | 1015.1 |
| 20260903183204 | 77 | 252 | 7.0 | 12.0 | 0.00 | 0.00 | 0.00 | 30 | 1015.1 |
| 20260903182704 | 77 | 300 | 7.0 | 12.0 | 0.00 | 0.00 | 0.00 | 30 | 1015.1 |
| 20260903181704 | 77 | 323 | 5.0 | 12.0 | 0.00 | 0.00 | 0.00 | 31 | 1015.1 |
| 20260903180704 | 77 | 266 | 4.0 | 10.0 | 0.00 | 0.00 | 0.00 | 30 | 1015.1 |
| 20260903180204 | 77 | 307 | 4.0 | 9.0 | 0.00 | 0.00 | 0.00 | 30 | 1015.2 |
| 20260903175704 | 76 | 141 | 3.0 | 9.0 | 0.00 | 0.00 | 0.00 | 28 | 1015.1 |
| 20260903175204 | 76 | 255 | 3.0 | 8.0 | 0.00 | 0.00 | 0.00 | 28 | 1015.2 |
| 20260903174704 | 77 | 240 | 2.0 | 8.0 | 0.00 | 0.00 | 0.00 | 28 | 1015.2 |
| 20260903174204 | 76 | 227 | 2.0 | 6.0 | 0.00 | 0.00 | 0.00 | 29 | 1015.2 |
| 20260903173704 | 76 | 227 | 3.0 | 8.0 | 0.00 | 0.00 | 0.00 | 28 | 1015.2 |
| 20260903173204 | 76 | 226 | 3.0 | 8.0 | 0.00 | 0.00 | 0.00 | 29 | 1015.1 |
| 20260903172704 | 75 | 226 | 4.0 | 9.0 | 0.00 | 0.00 | 0.00 | 30 | 1015.1 |
| 20260903172204 | 74 | 236 | 4.0 | 11.0 | 0.00 | 0.00 | 0.00 | 29 | 1015.1 |
| 20260903171704 | 74 | 304 | 5.0 | 11.0 | 0.00 | 0.00 | 0.00 | 30 | 1015.1 |
| 20260903171204 | 73 | 298 | 5.0 | 11.0 | 0.00 | 0.00 | 0.00 | 30 | 1015.1 |
| 20260903170704 | 73 | 292 | 4.0 | 9.0 | 0.00 | 0.00 | 0.00 | 31 | 1015.1 |
| 20260903170204 | 73 | 269 | 5.0 | 10.0 | 0.00 | 0.00 | 0.00 | 28 | 1015.2 |
| 20260903165704 | 73 | 250 | 4.0 | 11.0 | 0.00 | 0.00 | 0.00 | 30 | 1015.1 |
| 20260903165205 | 72 | 319 | 7.0 | 12.0 | 0.00 | 0.00 | 0.00 | 30 | 1015.1 |
| 20260903164704 | 72 | 267 | 8.0 | 12.0 | 0.00 | 0.00 | 0.00 | 33 | 1015.2 |
| 20260903164204 | 72 | 263 | 7.0 | 11.0 | 0.00 | 0.00 | 0.00 | 35 | 1015.1 |
| 20260903163204 | 71 | 286 | 8.0 | 13.0 | 0.00 | 0.00 | 0.00 | 33 | 1015.1 |
| 20260903162704 | 71 | 303 | 9.0 | 13.0 | 0.00 | 0.00 | 0.00 | 34 | 1015.2 |
| 20260903162204 | 71 | 295 | 9.0 | 12.0 | 0.00 | 0.00 | 0.00 | 34 | 1015.1 |
| 20260903161704 | 71 | 307 | 9.0 | 12.0 | 0.00 | 0.00 | 0.00 | 35 | 1015.1 |
| 20260903161204 | 71 | 288 | 8.0 | 11.0 | 0.00 | 0.00 | 0.00 | 36 | 1015.2 |
| 20260903160704 | 71 | 300 | 6.0 | 9.0 | 0.00 | 0.00 | 0.00 | 36 | 1015.2 |
| 20260903155204 | 70 | 325 | 1.0 | 4.0 | 0.00 | 0.00 | 0.00 | 35 | 1015.2 |
| 20260903154704 | 69 | 325 | 2.0 | 4.0 | 0.00 | 0.00 | 0.00 | 35 | 1015.2 |
| 20260903154204 | 69 | 325 | 2.0 | 3.0 | 0.00 | 0.00 | 0.00 | 35 | 1015.2 |
| 20260903153704 | 68 | 325 | 1.0 | 3.0 | 0.00 | 0.00 | 0.00 | 35 | 1015.2 |
| 20260903153205 | 68 | 325 | 1.0 | 4.0 | 0.00 | 0.00 | 0.00 | 36 | 1015.3 |
| 20260903152704 | 67 | 325 | 2.0 | 4.0 | 0.00 | 0.00 | 0.00 | 36 | 1015.2 |
| 20260903152204 | 66 | 325 | 2.0 | 4.0 | 0.00 | 0.00 | 0.00 | 37 | 1015.2 |
| 20260903151704 | 66 | 325 | 2.0 | 4.0 | 0.00 | 0.00 | 0.00 | 37 | 1015.2 |
| 20260903151204 | 66 | 325 | 2.0 | 4.0 | 0.00 | 0.00 | 0.00 | 38 | 1015.2 |
| 20260903150704 | 65 | 325 | 1.0 | 3.0 | 0.00 | 0.00 | 0.00 | 39 | 1015.2 |
| 20260903150204 | 64 | 325 | 1.0 | 3.0 | 0.00 | 0.00 | 0.00 | 41 | 1015.2 |
| 20260903145704 | 64 | 325 | 1.0 | 3.0 | 0.00 | 0.00 | 0.00 | 41 | 1015.3 |
| 20260903145204 | 63 | 325 | 1.0 | 3.0 | 0.00 | 0.00 | 0.00 | 42 | 1015.3 |
| 20260903144704 | 63 | 325 | 2.0 | 3.0 | 0.00 | 0.00 | 0.00 | 43 | 1015.2 |
| 20260903144204 | 62 | 325 | 2.0 | 4.0 | 0.00 | 0.00 | 0.00 | 43 | 1015.2 |
| 20260903143704 | 62 | 324 | 2.0 | 5.0 | 0.00 | 0.00 | 0.00 | 44 | 1015.1 |
| 20260903142205 | 60 | 324 | 3.0 | 5.0 | 0.00 | 0.00 | 0.00 | 47 | 1014.9 |
| 20260903141704 | 60 | 324 | 4.0 | 5.0 | 0.00 | 0.00 | 0.00 | 47 | 1015.0 |
| 20260903141205 | 59 | 324 | 4.0 | 6.0 | 0.00 | 0.00 | 0.00 | 49 | 1014.9 |
| 20260903135206 | 57 | 323 | 4.0 | 6.0 | 0.00 | 0.00 | 0.00 | 53 | 1014.6 |
| 20260903134704 | 56 | 323 | 4.0 | 6.0 | 0.00 | 0.00 | 0.00 | 54 | 1014.6 |
| 20260903134204 | 56 | 323 | 4.0 | 5.0 | 0.00 | 0.00 | 0.00 | 55 | 1014.6 |
| 20260903133704 | 56 | 323 | 3.0 | 5.0 | 0.00 | 0.00 | 0.00 | 56 | 1014.5 |
| 20260903133205 | 55 | 323 | 3.0 | 5.0 | 0.00 | 0.00 | 0.00 | 56 | 1014.5 |
| 20260903132704 | 55 | 323 | 3.0 | 4.0 | 0.00 | 0.00 | 0.00 | 56 | 1014.5 |
| 20260903132204 | 55 | 323 | 3.0 | 5.0 | 0.00 | 0.00 | 0.00 | 56 | 1014.6 |
| 20260903131704 | 55 | 323 | 2.0 | 5.0 | 0.00 | 0.00 | 0.00 | 56 | 1014.6 |
| 20260903130704 | 55 | 323 | 3.0 | 5.0 | 0.00 | 0.00 | 0.00 | 55 | 1014.7 |
| 20260903125704 | 56 | 323 | 4.0 | 5.0 | 0.00 | 0.00 | 0.00 | 55 | 1014.6 |
| 20260903125206 | 56 | 323 | 4.0 | 6.0 | 0.00 | 0.00 | 0.00 | 55 | 1014.6 |
| 20260903124705 | 56 | 323 | 3.0 | 6.0 | 0.00 | 0.00 | 0.00 | 55 | 1014.6 |
| 20260903124204 | 56 | 323 | 4.0 | 6.0 | 0.00 | 0.00 | 0.00 | 56 | 1014.6 |
| 20260903123205 | 56 | 323 | 3.0 | 5.0 | 0.00 | 0.00 | 0.00 | 55 | 1014.7 |
| 20260903122705 | 56 | 323 | 3.0 | 5.0 | 0.00 | 0.00 | 0.00 | 54 | 1014.6 |
| 20260903122204 | 56 | 323 | 3.0 | 5.0 | 0.00 | 0.00 | 0.00 | 53 | 1014.7 |
| 20260903121705 | 57 | 323 | 4.0 | 5.0 | 0.00 | 0.00 | 0.00 | 52 | 1014.7 |
| 20260903121204 | 57 | 323 | 4.0 | 4.0 | 0.00 | 0.00 | 0.00 | 51 | 1014.7 |
| 20260903120704 | 58 | 323 | 3.0 | 6.0 | 0.00 | 0.00 | 0.00 | 47 | 1014.7 |
| 20260903115704 | 58 | 323 | 3.0 | 6.0 | 0.00 | 0.00 | 0.00 | 42 | 1014.7 |
| 20260903115204 | 58 | 323 | 4.0 | 8.0 | 0.00 | 0.00 | 0.00 | 42 | 1014.9 |
| 20260903114204 | 58 | 323 | 4.0 | 8.0 | 0.00 | 0.00 | 0.00 | 44 | 1014.9 |
| 20260903113704 | 57 | 324 | 4.0 | 6.0 | 0.00 | 0.00 | 0.00 | 47 | 1014.9 |
| 20260903113204 | 57 | 323 | 4.0 | 6.0 | 0.00 | 0.00 | 0.00 | 47 | 1015.0 |
| 20260903112705 | 57 | 323 | 4.0 | 5.0 | 0.00 | 0.00 | 0.00 | 48 | 1014.9 |
| 20260903112204 | 58 | 323 | 3.0 | 6.0 | 0.00 | 0.00 | 0.00 | 51 | 1014.9 |
| 20260903111704 | 58 | 323 | 3.0 | 10.0 | 0.00 | 0.00 | 0.00 | 51 | 1014.9 |
| 20260903111204 | 58 | 323 | 4.0 | 10.0 | 0.00 | 0.00 | 0.00 | 51 | 1014.9 |
| 20260903110706 | 58 | 323 | 6.0 | 10.0 | 0.00 | 0.00 | 0.00 | 52 | 1014.9 |
| 20260903110204 | 58 | 323 | 6.0 | 9.0 | 0.00 | 0.00 | 0.00 | 52 | 1014.9 |
| 20260903105704 | 58 | 317 | 5.0 | 10.0 | 0.00 | 0.00 | 0.00 | 52 | 1014.9 |
| 20260903105204 | 58 | 324 | 6.0 | 12.0 | 0.00 | 0.00 | 0.00 | 52 | 1014.9 |
| 20260903104705 | 59 | 326 | 7.0 | 12.0 | 0.00 | 0.00 | 0.00 | 52 | 1014.9 |
| 20260903104205 | 59 | 305 | 7.0 | 13.0 | 0.00 | 0.00 | 0.00 | 52 | 1015.0 |
| 20260903103704 | 59 | 309 | 8.0 | 13.0 | 0.00 | 0.00 | 0.00 | 52 | 1015.0 |
| 20260903103204 | 59 | 319 | 9.0 | 13.0 | 0.00 | 0.00 | 0.00 | 52 | 1015.0 |
| 20260903102704 | 59 | 311 | 9.0 | 14.0 | 0.00 | 0.00 | 0.00 | 52 | 1015.0 |
| 20260903102204 | 59 | 300 | 10.0 | 17.0 | 0.00 | 0.00 | 0.00 | 51 | 1015.2 |
| 20260903101705 | 59 | 316 | 10.0 | 17.0 | 0.00 | 0.00 | 0.00 | 51 | 1015.2 |
| 20260903100704 | 59 | 304 | 10.0 | 16.0 | 0.00 | 0.00 | 0.00 | 51 | 1015.1 |
| 20260903100204 | 59 | 304 | 10.0 | 16.0 | 0.00 | 0.00 | 0.00 | 51 | 1015.1 |
| 20260903095204 | 59 | 294 | 10.0 | 14.0 | 0.00 | 0.00 | 0.00 | 51 | 1015.1 |
| 20260903094704 | 59 | 307 | 10.0 | 16.0 | 0.00 | 0.00 | 0.00 | 51 | 1015.1 |
| 20260903094204 | 59 | 312 | 10.0 | 16.0 | 0.00 | 0.00 | 0.00 | 51 | 1015.1 |
| 20260903093704 | 60 | 299 | 10.0 | 16.0 | 0.00 | 0.00 | 0.00 | 51 | 1015.1 |
| 20260903093204 | 60 | 313 | 9.0 | 12.0 | 0.00 | 0.00 | 0.00 | 50 | 1015.3 |
| 20260903092704 | 60 | 314 | 8.0 | 12.0 | 0.00 | 0.00 | 0.00 | 50 | 1015.4 |
| 20260903092204 | 60 | 303 | 7.0 | 12.0 | 0.00 | 0.00 | 0.00 | 50 | 1015.4 |
| 20260903091704 | 59 | 302 | 5.0 | 9.0 | 0.00 | 0.00 | 0.00 | 50 | 1015.4 |
| 20260903091206 | 59 | 316 | 4.0 | 9.0 | 0.00 | 0.00 | 0.00 | 49 | 1015.5 |
| 20260903090704 | 59 | 344 | 5.0 | 9.0 | 0.00 | 0.00 | 0.00 | 50 | 1015.7 |
| 20260903090205 | 59 | 346 | 6.0 | 9.0 | 0.00 | 0.00 | 0.00 | 50 | 1015.7 |
| 20260903085704 | 59 | 309 | 5.0 | 8.0 | 0.00 | 0.00 | 0.00 | 51 | 1015.9 |
| 20260903084705 | 59 | 327 | 5.0 | 11.0 | 0.00 | 0.00 | 0.00 | 52 | 1016.0 |
| 20260903084205 | 60 | 326 | 7.0 | 11.0 | 0.00 | 0.00 | 0.00 | 52 | 1016.1 |
| 20260903082704 | 60 | 333 | 6.0 | 12.0 | 0.00 | 0.00 | 0.00 | 53 | 1016.1 |
| 20260903081704 | 60 | 323 | 8.0 | 12.0 | 0.00 | 0.00 | 0.00 | 53 | 1016.1 |
| 20260903081204 | 60 | 315 | 7.0 | 11.0 | 0.00 | 0.00 | 0.00 | 54 | 1016.1 |
| 20260903080705 | 60 | 315 | 8.0 | 11.0 | 0.00 | 0.00 | 0.00 | 55 | 1016.2 |
| 20260903075204 | 60 | 313 | 6.0 | 10.0 | 0.00 | 0.00 | 0.00 | 56 | 1016.2 |
| 20260903074704 | 60 | 316 | 6.0 | 10.0 | 0.00 | 0.00 | 0.00 | 56 | 1016.3 |
| 20260903074204 | 60 | 316 | 6.0 | 12.0 | 0.00 | 0.00 | 0.00 | 56 | 1016.1 |
| 20260903073205 | 60 | 305 | 7.0 | 12.0 | 0.00 | 0.00 | 0.00 | 56 | 1016.2 |
| 20260903072704 | 60 | 315 | 6.0 | 10.0 | 0.00 | 0.00 | 0.00 | 56 | 1016.2 |
| 20260903072204 | 60 | 317 | 7.0 | 10.0 | 0.00 | 0.00 | 0.00 | 55 | 1016.2 |
| 20260903071705 | 60 | 303 | 7.0 | 10.0 | 0.00 | 0.00 | 0.00 | 54 | 1016.2 |
| 20260903071204 | 59 | 302 | 6.0 | 9.0 | 0.00 | 0.00 | 0.00 | 54 | 1016.3 |
| 20260903070704 | 59 | 305 | 5.0 | 9.0 | 0.00 | 0.00 | 0.00 | 55 | 1016.3 |
| 20260903065704 | 59 | 307 | 5.0 | 5.0 | 0.00 | 0.00 | 0.00 | 56 | 1016.3 |
| 20260903065204 | 59 | 309 | 4.0 | 5.0 | 0.00 | 0.00 | 0.00 | 55 | 1016.3 |
| 20260903064704 | 59 | 309 | 4.0 | 5.0 | 0.00 | 0.00 | 0.00 | 55 | 1016.3 |
| 20260903064204 | 59 | 310 | 4.0 | 6.0 | 0.00 | 0.00 | 0.00 | 53 | 1016.4 |
| 20260903063705 | 59 | 310 | 4.0 | 6.0 | 0.00 | 0.00 | 0.00 | 52 | 1016.4 |
| 20260903063204 | 59 | 311 | 4.0 | 6.0 | 0.00 | 0.00 | 0.00 | 51 | 1016.5 |